User: anonymous   Login
Location: Ellerstadt
(49.4644°N, 8.2615°E)
Time: 02:00:54
(UTC+00:00)
Language:

Cosmos 1633 Rocket - Orbit

View from above orbital plane
View from above orbital plane
View from above satellite
View from above satellite

Ground track
Ground track

The orbit data is extracted from the following two-line orbital elements,

1 15593U 85020B   21125.43235042  .00000088  00000-0  76185-5 0  9990
2 15593  82.5406  15.3702 0012645  41.0702 319.1464 14.84427965933597
Epoch (UTC): 05 May 2021 10:22:35
Eccentricity: 0.0012645
inclination: 82.5406°
perigee height: 606 km
apogee height: 624 km
right ascension of ascending node: 15.3702°
argument of perigee: 41.0702°
revolutions per day: 14.84427965
mean anomaly at epoch: 319.1464°
orbit number at epoch: 93359

The dashed part of the orbit path shows where the satellite is in the earth's shadow,  

DLR